Location: Spring Creek
(38.2870°N, 100.2160°W)
Time: 01:48:27
(UTC+00:00)

Hubble Space Telescope - Visible Passes

Search period start: 11 June 2023 00:00
Search period end: 21 June 2023 00:00
Orbit: 525 x 528 km, 28.5° (Epoch: 10 June)

Date Brightness Start Highest point End Pass type
(mag) Time Alt. Az. Time Alt. Az. Time Alt. Az.
18 Jun 2.6 10:45:28 10° SSW 10:48:03 16° S 10:50:38 10° SE visible
19 Jun 2.5 10:30:38 10° SW 10:33:22 18° S 10:36:07 10° SE visible
20 Jun 2.4 10:16:38 13° SSW 10:18:40 19° S 10:21:32 10° SE visible
